N0DP Weather Reports


time (UTC)temp
F
wind
direction
speed
knots
gust
knots
rain 1hr
in
rain 24hr
in
rain mn
in
humidity
%
barometer
mb
20260906173537 74 0.0 5.2 0.00 0.00 0.00 90 1016.3
20260906172536 74 0.0 0.9 0.00 0.00 0.00 90 1016.5
20260906171516 73 0.0 2.6 0.00 0.00 0.00 91 1016.5
20260906170516 73 0.0 0.0 0.00 0.00 0.00 91 1016.7
20260906165516 73 0.0 2.6 0.00 0.00 0.00 91 1016.7
20260906164516 73 0.0 4.3 0.00 0.00 0.00 91 1016.7
20260906163516 73 0.0 5.2 0.00 0.00 0.00 91 1016.8
20260906162516 73 0.0 1.7 0.00 0.00 0.00 92 1016.9
20260906161516 73 0.0 1.7 0.00 0.00 0.00 91 1016.9
20260906160516 73 0.0 0.0 0.00 0.00 0.00 92 1017.0
20260906155517 74 0.0 0.0 0.00 0.00 0.00 91 1016.8
20260906154516 74 0.0 1.7 0.00 0.00 0.00 91 1016.9
20260906153516 74 0.0 0.0 0.00 0.00 0.00 91 1016.9
20260906152516 74 0.0 2.6 0.00 0.00 0.00 92 1016.9
20260906151516 74 0.0 2.6 0.00 0.00 0.00 90 1016.9
20260906150516 74 0 0.9 4.3 0.00 0.00 0.00 90 1016.9
20260906145516 74 0.0 0.9 0.00 0.00 0.00 91 1016.7
20260906144516 74 0.0 1.7 0.00 0.00 0.00 93 1016.7
20260906143516 74 0.0 1.7 0.00 0.00 0.00 93 1016.7
20260906142516 74 0.0 5.2 0.00 0.00 0.00 93 1016.6
20260906141516 74 0.0 0.0 0.00 0.00 0.00 93 1016.6
20260906140617 73 0.0 0.0 0.00 0.00 0.00 94 1016.8
20260906135516 73 0.0 0.0 0.00 0.00 0.00 94 1016.6
20260906134516 73 0.0 4.3 0.00 0.00 0.00 95 1016.6
20260906133516 72 0.0 0.0 0.00 0.00 0.00 96 1016.5
20260906132516 72 0.0 0.0 0.00 0.00 0.00 96 1016.5
20260906131516 71 0.0 2.6 0.00 0.00 0.00 97 1016.4
20260906130515 71 0.0 0.9 0.00 0.00 0.00 100 1016.3
20260906125516 70 0.0 0.0 0.00 0.00 0.00 100 1016.3
20260906124516 69 0.0 0.0 0.00 0.00 0.00 100 1016.3
20260906123536 69 0.0 0.0 0.00 0.00 0.00 100 1016.2
20260906122516 68 0.0 0.0 0.00 0.00 0.00 100 1016.3
20260906121516 67 0.0 0.0 0.00 0.00 0.00 100 1016.2
20260906120536 67 0.0 0.0 0.00 0.00 0.00 100 1016.1
20260906115516 67 0.0 0.0 0.00 0.00 0.00 100 1015.9
20260906114516 67 0.0 0.0 0.00 0.00 0.00 100 1015.9
20260906113516 67 0.0 0.0 0.00 0.00 0.00 100 1016.0
20260906112515 67 0.0 0.0 0.00 0.00 0.00 100 1015.7
20260906111515 67 0.0 0.0 0.00 0.00 0.00 100 1015.7
20260906110516 67 0.0 0.0 0.00 0.00 0.00 100 1015.6
20260906105515 67 0.0 0.0 0.00 0.00 0.00 100 1015.6
20260906104516 67 0.0 0.0 0.00 0.00 0.00 100 1015.6
20260906103516 67 0.0 0.0 0.00 0.00 0.00 100 1015.6
20260906102515 67 0.0 0.0 0.00 0.00 0.00 100 1015.6
20260906101516 67 0.0 0.0 0.00 0.00 0.00 100 1015.6
20260906100536 68 0.0 0.0 0.00 0.00 0.00 100 1015.5
20260906095516 68 0.0 0.0 0.00 0.00 0.00 100 1015.3
20260906094536 68 0.0 0.0 0.00 0.00 0.00 100 1015.3
20260906093516 68 0.0 0.0 0.00 0.00 0.00 100 1015.0
20260906092518 68 0.0 0.0 0.00 0.00 0.00 100 1014.8
20260906091518 69 0.0 0.0 0.00 0.00 0.00 100 1014.8
20260906090518 69 0.0 0.0 0.00 0.00 0.00 100 1014.8
20260906085518 69 0.0 0.0 0.00 0.00 0.00 100 1015.0
20260906084558 69 0.0 0.0 0.00 0.00 0.00 100 1015.0
20260906083517 70 0.0 0.0 0.00 0.00 0.00 100 1014.8
20260906082527 70 0.0 0.0 0.00 0.00 0.00 100 1014.6
20260906081528 70 0.0 0.0 0.00 0.00 0.00 100 1014.6
20260906080518 70 0.0 0.0 0.00 0.00 0.00 100 1014.5
20260906075517 70 0.0 0.0 0.00 0.00 0.00 100 1014.5
20260906074517 70 0.0 0.0 0.00 0.00 0.00 100 1014.5
20260906073517 70 0.0 0.0 0.00 0.00 0.00 100 1014.6
20260906072518 70 0.0 0.0 0.00 0.00 0.00 100 1014.9
20260906071538 70 0.0 0.0 0.00 0.00 0.00 100 1014.9
20260906070517 70 0.0 1.7 0.00 0.00 0.00 100 1015.1
20260906065517 70 0.0 0.0 0.00 0.00 0.00 100 1015.1
20260906064517 70 0.0 0.0 0.00 0.00 0.00 100 1015.1
20260906063517 70 0.0 0.0 0.00 0.00 0.00 100 1015.1
20260906062517 70 0.0 0.0 0.00 0.00 0.00 100 1015.0
20260906061518 70 0.0 0.0 0.00 0.00 0.00 100 1015.0
20260906060517 70 0.0 0.0 0.00 0.00 0.00 100 1015.0
20260906055537 70 0.0 0.0 0.00 0.00 0.00 100 1015.0
20260906054517 70 0.0 0.0 0.00 0.00 0.00 100 1015.0
20260906053517 71 0.0 0.0 0.00 0.00 0.00 100 1015.0
20260906052518 71 0.0 0.0 0.00 0.00 0.00 100 1015.0
20260906051517 71 0.0 0.0 0.00 0.00 0.00 100 1015.0
20260906050517 71 0.0 0.0 0.00 0.00 0.00 100 1015.2
20260906045517 71 0.0 0.0 0.00 0.00 0.00 100 1015.5
20260906044516 71 0.0 0.0 0.00 0.00 0.00 99 1015.5
20260906043516 71 0.0 0.0 0.00 0.00 0.00 99 1015.3
20260906042516 71 0.0 0.0 0.00 0.00 0.00 99 1015.4
20260906041516 71 0.0 0.0 0.00 0.00 0.00 98 1015.4
20260906040516 72 0.0 0.0 0.00 0.00 0.00 97 1015.5
20260906035516 72 0.0 0.0 0.00 0.00 0.00 96 1015.6
20260906034516 72 0.0 0.0 0.00 0.00 0.00 96 1015.6
20260906033516 73 0.0 0.0 0.00 0.00 0.00 95 1015.5
20260906032516 73 0.0 0.0 0.00 0.00 0.00 95 1015.4
20260906031516 73 0.0 0.0 0.00 0.00 0.00 94 1015.4
20260906030516 74 0.0 0.0 0.00 0.00 0.00 93 1015.4
20260906025516 74 0.0 0.0 0.00 0.00 0.00 93 1015.6
20260906024516 75 0.0 0.0 0.00 0.00 0.00 92 1015.6
20260906023516 75 0.0 0.0 0.00 0.00 0.00 91 1015.6
20260906022516 75 0.0 0.0 0.00 0.00 0.00 90 1015.3
20260906021537 75 0.0 0.0 0.00 0.00 0.00 89 1015.3
20260906020516 76 0.0 0.0 0.00 0.00 0.00 88 1014.7
20260906015516 76 0.0 0.0 0.00 0.00 0.00 87 1014.4
20260906014517 76 0.0 0.0 0.00 0.00 0.00 87 1014.4
20260906013536 77 0.0 0.0 0.00 0.00 0.00 86 1013.8
20260906012516 77 0.0 0.0 0.00 0.00 0.00 85 1013.4
20260906011516 78 0.0 0.0 0.00 0.00 0.00 84 1013.4
20260906010516 78 0.0 2.6 0.00 0.00 0.00 83 1013.2
20260906005516 79 0.0 0.0 0.00 0.00 0.00 82 1012.9
20260906004516 79 0.0 4.3 0.00 0.00 0.00 81 1013.0
20260906003516 80 0.0 0.0 0.00 0.00 0.00 80 1012.9
20260906002516 80 0.0 0.0 0.00 0.00 0.00 78 1012.5
20260906001518 80 0.0 0.9 0.00 0.00 0.00 78 1012.5
20260906000516 81 0.0 0.0 0.00 0.00 0.00 76 1012.6
20260905235516 82 0.0 0.0 0.00 0.00 0.00 74 1012.7
20260905234516 82 0.0 0.0 0.00 0.00 0.00 71 1012.7
20260905233516 82 113 0.9 6.1 0.00 0.00 0.00 70 1012.5
20260905232516 83 0.0 0.0 0.00 0.00 0.00 69 1012.5
20260905231515 83 0.0 0.0 0.00 0.00 0.00 69 1012.5
20260905230516 83 113 0.9 7.0 0.00 0.00 0.00 68 1012.3
20260905225516 83 0.0 1.7 0.00 0.00 0.00 69 1012.0
20260905224516 83 113 0.9 6.1 0.00 0.00 0.00 68 1012.0
20260905223515 83 0.0 5.2 0.00 0.00 0.00 69 1011.9
20260905222516 83 0.0 0.9 0.00 0.00 0.00 73 1012.2
20260905221516 83 113 0.9 5.2 0.00 0.00 0.00 70 1012.1
20260905220517 83 0.0 1.7 0.00 0.00 0.00 70 1012.3
20260905215517 83 113 0.9 4.3 0.00 0.00 0.00 70 1012.4
20260905214517 83 0.0 1.7 0.00 0.00 0.00 73 1012.4
20260905213518 82 0.0 3.5 0.00 0.00 0.00 72 1012.6
20260905212537 82 338 0.9 7.0 0.00 0.00 0.00 74 1012.7
20260905211517 82 0.0 0.0 0.00 0.00 0.00 73 1012.7
20260905210517 82 0.0 5.2 0.00 0.00 0.00 75 1012.8
20260905205517 81 0.0 3.5 0.00 0.00 0.00 75 1012.6
20260905204517 81 270 0.9 9.6 0.00 0.00 0.00 78 1012.6
20260905203517 81 158 0.9 10.4 0.00 0.00 0.00 79 1013.3
20260905202538 80 0.0 5.2 0.00 0.00 0.00 79 1013.5
20260905201517 80 338 0.9 6.1 0.00 0.00 0.00 80 1013.5
20260905200528 80 315 0.9 8.7 0.00 0.00 0.00 82 1014.0
20260905195528 80 315 0.9 5.2 0.00 0.00 0.00 83 1014.2
20260905194517 80 0.0 0.9 0.00 0.00 0.00 82 1014.2
20260905193518 80 0.0 0.0 0.00 0.00 0.00 82 1014.5
20260905192517 80 0.0 0.0 0.00 0.00 0.00 82 1014.5
20260905191517 79 0.0 0.0 0.00 0.00 0.00 83 1014.5
20260905190517 79 0.0 0.0 0.00 0.00 0.00 84 1014.6
20260905185517 78 0.0 4.3 0.00 0.00 0.00 85 1014.6
20260905184537 78 0.0 0.0 0.00 0.00 0.00 84 1014.6
20260905183518 78 0.0 0.0 0.00 0.00 0.00 86 1014.7
20260905182518 77 0.0 0.0 0.00 0.00 0.00 87 1014.9
20260905181517 77 0.0 0.0 0.00 0.00 0.00 86 1014.9
20260905180537 77 0.0 0.0 0.00 0.00 0.00 87 1015.0
20260905175517 76 0.0 0.0 0.00 0.00 0.00 89 1015.3
20260905174517 75 0.0 0.0 0.00 0.00 0.00 91 1015.3